Lid_Strength_Index
8 8 8 8 3 2 2 2 1 1 1 -0 -0 -0 -0 -0 -0 -0 -0 0 0 0 0 -0 0 -1 -0 -0 -0 0 0 0
9 9 8 8 3 2 2 3 2 2 1 1 0 0 0 0 -0 -0 -0 0 1 0 -0 0 -0 0 0 0 0 0 0 0
9 9 8 8 6 3 3 3 3 3 1 1 1 0 0 0 -0 -0 -0 0 1 0 1 0 -0 0 0 0 1 1 0 1
8 8 8 7 6 5 2 2 2 1 2 2 2 2 1 1 0 -0 -0 0 0 1 1 1 0 -0 -0 0 1 1 1 1
8 7 8 8 6 4 7 4 2 1 1 1 2 2 2 2 2 1 0 0 1 1 1 1 0 0 0 0 1 2 2 2
7 8 7 6 6 6 4 3 3 2 1 1 1 1 1 1 2 1 1 0 0 2 1 1 0 0 0 0 1 2 2 2
7 7 6 6 6 5 3 4 2 1 1 1 2 1 0 0 0 0 1 0 0 1 2 0 1 0 0 1 2 2 2 2
7 7 6 6 6 5 4 3 4 3 2 2 2 3 3 1 1 0 -0 0 -0 0 0 0 0 1 1 1 2 3 3 2
6 5 5 2 3 3 3 3 3 3 3 3 4 4 3 2 1 1 0 -0 -0 0 0 0 0 1 1 1 2 3 3 4
6 4 3 3 3 3 2 2 2 2 2 3 3 3 3 3 2 1 1 0 0 0 1 1 1 1 1 2 2 4 3 3
5 4 4 4 4 3 2 2 2 1 1 1 2 2 2 3 3 3 1 0 0 0 0 0 1 1 1 1 1 2 3 3
6 5 5 5 4 3 3 2 2 2 1 2 3 3 4 3 3 2 2 0 0 0 1 1 1 1 2 1 2 3 2 3
7 6 5 4 3 3 2 3 2 2 2 2 2 3 2 2 2 2 2 1 0 2 2 1 1 1 1 1 2 1 1 2
6 7 6 6 5 4 3 3 3 2 2 2 3 3 3 3 3 2 2 2 1 1 2 2 1 1 1 1 1 1 2 2
7 7 6 6 6 6 5 5 5 4 3 2 3 3 2 3 3 2 2 2 2 3 2 2 2 1 1 1 1 1 1 2
7 7 7 7 7 6 6 6 6 5 4 4 3 2 3 2 2 2 2 2 2 2 5 5 5 1 1 1 1 1 1 2
7 8 8 7 7 7 6 6 6 6 5 5 5 5 4 3 2 3 1 1 1 1 2 4 4 2 1 2 2 2 1 2
7 7 7 7 7 7 7 6 7 6 6 5 5 5 5 4 4 2 2 1 1 1 1 1 2 1 1 2 2 2 2 2
8 8 7 7 7 7 7 6 6 6 6 6 6 5 5 4 4 3 1 1 1 1 1 1 1 1 2 3 3 3 2 3
8 8 7 7 7 7 7 7 7 6 6 6 6 5 5 4 4 3 3 1 1 1 1 1 1 2 4 4 3 4 5 6